"Pseudo-MPEC" for SO0005c

Created 2026 May 17 1:35:07 UT using Find_Orb

Click here for an explanation of pseudo-MPECs

 
 Astrometry: 
     SO0005c*0B2026 05 11.65199415 28 25.694-15 42 25.16   ~5C1K 17.64VVNEOCPE54
     SO0005c 0B2026 05 11.65344715 28 46.121-15 45 47.63   ~5C1K 17.93VVNEOCPE54
     SO0005c 0B2026 05 11.65493915 29 07.176-15 49 15.82   ~5C1K 17.09VVNEOCPE54

Station data:
(E54) TransAstra at Springbrook  (S31.281736 E149.081470)  Australia/NSW.

Orbital elements:  SO0005c
   Perigee 2026 May 11.819907 +/- 37.4 TT = 19:40:39.9 (JD 2461172.319907)
Epoch 2026 May 12.0 TT = JDT 2461172.5                           AutoNEOCP
q 82839.74964 +/- 2.3e+7            (J2000 equator)
H   30.15 G 0.15                    Peri.  285.662097 +/- 53
                                    Node    29.317177 +/- 56
e 139.59433488 +/- 0.235            Incl.   36.123766 +/- 1.8
From 3 observations 2026 May 11 (4.2 min); mean residual 0".87
Residuals in arcseconds: 
260511 E54  .69-  .50+    260511 E54  1.4+  1.0-    260511 E54  .72-  .52+    

Ephemerides (geocentric):
Date (UTC) HH   RA             Dec           delta  r     elong  mag " sig PA
---- --------  ------------   ------------  ------ ------ -----  --- --------
2026 05 17 02  02 48 31.305   +09 12 05.39  .07871 .93536  14.9 37??  66d 103
2026 05 17 03  02 48 32.106   +09 12 14.35  .07933 .93478  14.9 37??  66d 103
2026 05 17 04  02 48 32.898   +09 12 23.23  .07996 .93420  14.9 37??  66d 103
2026 05 17 05  02 48 33.683   +09 12 32.03  .08059 .93362  15.0 37??  66d 103
2026 05 17 06  02 48 34.459   +09 12 40.75  .08121 .93304  15.0 37??  66d 103
2026 05 17 07  02 48 35.228   +09 12 49.40  .08184 .93246  15.0 37??  66d 103
2026 05 17 08  02 48 35.989   +09 12 57.97  .08246 .93188  15.1 37??  66d 103
2026 05 17 09  02 48 36.744   +09 13 06.48  .08309 .93130  15.1 37??  66d 103
2026 05 17 10  02 48 37.491   +09 13 14.92  .08372 .93072  15.1 37??  66d 103
2026 05 17 11  02 48 38.232   +09 13 23.29  .08434 .93014  15.2 37??  66d 103
2026 05 17 12  02 48 38.965   +09 13 31.59  .08497 .92956  15.2 37??  66d 103
2026 05 17 13  02 48 39.693   +09 13 39.84  .08560 .92899  15.2 37??  66d 103
2026 05 17 14  02 48 40.414   +09 13 48.02  .08622 .92841  15.3 37??  66d 103
2026 05 17 15  02 48 41.130   +09 13 56.15  .08685 .92783  15.3 37??  66d 103
2026 05 17 16  02 48 41.839   +09 14 04.22  .08748 .92725  15.3 37??  66d 103
2026 05 17 17  02 48 42.543   +09 14 12.23  .08811 .92668  15.4 36??  66d 103
2026 05 17 18  02 48 43.242   +09 14 20.19  .08873 .92610  15.4 36??  66d 103
2026 05 17 19  02 48 43.935   +09 14 28.10  .08936 .92552  15.4 36??  66d 103
2026 05 17 20  02 48 44.622   +09 14 35.96  .08999 .92494  15.5 36??  66d 103
2026 05 17 21  02 48 45.305   +09 14 43.77  .09061 .92437  15.5 36??  66d 103
2026 05 17 22  02 48 45.983   +09 14 51.54  .09124 .92379  15.5 36??  66d 103
2026 05 17 23  02 48 46.656   +09 14 59.26  .09187 .92322  15.6 36??  66d 103
2026 05 18 00  02 48 47.325   +09 15 06.93  .09250 .92264  15.6 36??  66d 103
2026 05 18 01  02 48 47.989   +09 15 14.57  .09313 .92206  15.6 36??  66d 103
2026 05 18 02  02 48 48.648   +09 15 22.16  .09375 .92149  15.7 36??  66d 103
2026 05 18 03  02 48 49.304   +09 15 29.71  .09438 .92091  15.7 36??  66d 103
2026 05 18 04  02 48 49.955   +09 15 37.22  .09501 .92034  15.7 36??  66d 103
2026 05 18 05  02 48 50.603   +09 15 44.70  .09564 .91976  15.8 36??  66d 103
2026 05 18 06  02 48 51.247   +09 15 52.14  .09627 .91919  15.8 36??  66d 103
2026 05 18 07  02 48 51.887   +09 15 59.55  .09689 .91862  15.8 36??  66d 103
2026 05 18 08  02 48 52.523   +09 16 06.92  .09752 .91804  15.9 36??  66d 103
2026 05 18 09  02 48 53.156   +09 16 14.26  .09815 .91747  15.9 36??  66d 103
2026 05 18 10  02 48 53.786   +09 16 21.57  .09878 .91689  15.9 36??  66d 103
2026 05 18 11  02 48 54.412   +09 16 28.85  .09941 .91632  16.0 36??  66d 104
2026 05 18 12  02 48 55.036   +09 16 36.09  .10004 .91575  16.0 36??  66d 104
2026 05 18 13  02 48 55.656   +09 16 43.32  .10067 .91517  16.0 36??  66d 104
2026 05 18 14  02 48 56.273   +09 16 50.51  .10129 .91460  16.1 36??  66d 104
2026 05 18 15  02 48 56.888   +09 16 57.68  .10192 .91403  16.1 36??  67d 104
2026 05 18 16  02 48 57.500   +09 17 04.82  .10255 .91346  16.1 36??  67d 104
2026 05 18 17  02 48 58.109   +09 17 11.94  .10318 .91289  16.2 36??  67d 104
2026 05 18 18  02 48 58.715   +09 17 19.04  .10381 .91231  16.2 36??  67d 104
2026 05 18 19  02 48 59.320   +09 17 26.11  .10444 .91174  16.2 36??  67d 104
2026 05 18 20  02 48 59.921   +09 17 33.16  .10507 .91117  16.3 36??  67d 104
2026 05 18 21  02 49 00.521   +09 17 40.20  .10570 .91060  16.3 36??  67d 104
2026 05 18 22  02 49 01.118   +09 17 47.21  .10633 .91003  16.3 36??  67d 104
2026 05 18 23  02 49 01.714   +09 17 54.20  .10696 .90946  16.4 36??  67d 104
2026 05 19 00  02 49 02.307   +09 18 01.18  .10759 .90889  16.4 36??  68d 104
2026 05 19 01  02 49 02.899   +09 18 08.14  .10822 .90832  16.4 36??  68d 104